START_TIME,STEP,MOV.,EG07,t_acc.,EG08,t_acc.,EG09,t_acc.,EB05,t_acc.,EBP05,t_acc.
1979-03-08 22:23:09.440 ,0,0,,0,,0,,0,,0,,0
1979-03-08 22:23:10.640 ,0,0,0.,1.2,0.,1.2,0.,1.2,,0.0,,0.0
1979-03-08 22:23:11.840 ,0,0,0.,1.2,0.,1.2,0.,1.2,,0.0,,0.0
1979-03-08 22:23:13.040 ,0,0,0.,1.2,0.,1.2,0.,1.2,,0.0,,0.0
1979-03-08 22:23:14.240 ,0,0,0.,1.2,0.,1.2,0.,1.2,,0.0,,0.0
1979-03-08 22:23:15.440 ,0,0,0.,1.2,0.,1.2,0.,1.2,,0.0,,0.0
1979-03-08 22:23:16.640 ,0,0,0.,1.2,0.,1.2,0.,1.2,,0.0,,0.0
1979-03-08 22:23:17.840 ,0,0,0.,1.2,0.,1.2,0.,1.2,,0.0,,0.0
1979-03-08 22:23:19.040 ,0,0,0.,1.2,0.,1.2,0.,1.2,,0.0,,0.0
1979-03-08 22:23:20.240 ,0,0,0.,1.2,0.,1.2,0.,1.2,,0.0,,0.0
1979-03-08 22:23:21.440 ,0,0,0.,1.2,0.,1.2,0.,1.2,,0.0,,0.0
1979-03-08 22:23:22.640 ,0,0,0.,1.2,0.,1.2,0.,1.2,,0.0,,0.0
1979-03-08 22:23:23.840 ,0,0,0.,1.2,0.,1.2,0.,1.2,,0.0,,0.0
1979-03-08 22:23:25.040 ,0,0,0.,1.2,0.,1.2,0.,1.2,,0.0,,0.0
1979-03-08 22:23:26.240 ,0,0,0.,1.2,0.,1.2,0.,1.2,,0.0,,0.0
1979-03-08 22:23:27.440 ,0,0,0.,1.2,0.,1.2,0.,1.2,,0.0,,0.0
1979-03-08 22:23:28.640 ,0,0,0.,1.2,0.,1.2,0.,1.2,,0.0,,0.0
1979-03-08 22:23:29.840 ,0,0,0.,1.2,0.,1.2,0.,1.2,,0.0,,0.0
1979-03-08 22:23:31.040 ,0,0,0.,1.2,0.,1.2,0.,1.2,,0.0,,0.0
1979-03-08 22:23:32.240 ,0,0,0.,1.2,0.,1.2,0.,1.2,,0.0,,0.0
1979-03-08 22:23:32.840 ,0,0,0.,1.2,0.,1.2,0.,1.2,,0.0,,0.0
1979-03-08 22:23:34.040 ,0,0,0.,1.2,0.,1.2,0.,1.2,,0.0,,0.0
1979-03-08 22:23:35.240 ,0,0,0.,1.2,0.,1.2,0.,1.2,,0.0,,0.0
1979-03-08 22:23:36.440 ,0,0,0.,1.2,0.,1.2,0.,1.2,,0.0,,0.0
1979-03-08 22:23:37.640 ,0,0,0.,1.2,0.,1.2,0.,1.2,,0.0,,0.0
1979-03-08 22:23:38.840 ,0,0,0.,1.2,0.,1.2,0.,1.2,,0.0,,0.0
1979-03-08 22:23:40.040 ,0,0,0.,1.2,0.,1.2,0.,1.2,,0.0,,0.0
1979-03-08 22:23:41.240 ,0,0,0.,1.2,0.,1.2,0.,1.2,,0.0,,0.0
1979-03-08 22:23:42.440 ,0,0,0.,1.2,0.,1.2,0.,1.2,,0.0,,0.0
1979-03-08 22:23:43.640 ,0,0,0.,1.2,0.,1.2,0.,1.2,,0.0,,0.0
1979-03-08 22:23:44.840 ,0,0,0.,1.2,0.,1.2,0.,1.2,,0.0,,0.0
1979-03-08 22:23:46.040 ,0,0,0.,1.2,0.,1.2,0.,1.2,,0.0,,0.0
1979-03-08 22:23:47.240 ,0,0,0.,1.2,0.,1.2,0.,1.2,,0.0,,0.0
1979-03-08 22:23:48.440 ,0,0,0.,1.2,0.,1.2,0.,1.2,,0.0,,0.0
1979-03-08 22:23:49.640 ,0,0,0.,1.2,0.,1.2,0.,1.2,,0.0,,0.0
1979-03-08 22:23:50.840 ,0,0,0.,1.2,0.,1.2,0.,1.2,,0.0,,0.0
1979-03-08 22:23:52.040 ,0,0,0.,1.2,0.,1.2,0.,1.2,,0.0,,0.0
1979-03-08 22:23:53.240 ,0,0,0.,1.2,0.,1.2,0.,1.2,,0.0,,0.0
1979-03-08 22:23:54.440 ,0,0,0.,1.2,0.,1.2,0.,1.2,,0.0,,0.0
1979-03-08 22:23:55.640 ,0,0,0.,1.2,0.,1.2,0.,1.2,,0.0,,0.0
1979-03-08 22:23:56.840 ,1,0,0.,1.2,0.,1.2,0.,1.2,,0.0,,0.0
1979-03-08 22:23:58.040 ,1,0,0.,1.2,0.,1.2,0.,1.2,,0.0,,0.0
1979-03-08 22:23:59.240 ,1,0,0.,1.2,0.,1.2,0.,1.2,,0.0,,0.0
1979-03-08 22:24:00.440 ,1,0,0.,1.2,0.,1.2,0.,1.2,,0.0,,0.0
1979-03-08 22:24:01.640 ,1,0,0.,1.2,0.,1.2,0.,1.2,,0.0,,0.0
1979-03-08 22:24:02.840 ,1,0,0.,1.2,0.,1.2,0.,1.2,,0.0,,0.0
1979-03-08 22:24:04.040 ,1,0,0.,1.2,0.,1.2,0.,1.2,,0.0,,0.0
1979-03-08 22:24:05.240 ,1,0,0.,1.2,0.,1.2,0.,1.2,,0.0,,0.0
1979-03-08 22:24:06.440 ,1,0,0.,1.2,0.,1.2,0.,1.2,,0.0,,0.0
1979-03-08 22:24:07.640 ,1,0,0.,1.2,0.,1.2,0.,1.2,,0.0,,0.0
1979-03-08 22:24:08.840 ,1,0,0.,1.2,0.,1.2,0.,1.2,,0.0,,0.0
1979-03-08 22:24:10.040 ,1,0,0.,1.2,0.,1.2,0.,1.2,,0.0,,0.0
1979-03-08 22:24:11.240 ,1,0,0.,1.2,0.,1.2,0.,1.2,,0.0,,0.0
1979-03-08 22:24:12.440 ,1,0,0.,1.2,0.,1.2,0.,1.2,,0.0,,0.0
1979-03-08 22:24:13.640 ,1,0,0.,1.2,0.,1.2,0.,1.2,,0.0,,0.0
1979-03-08 22:24:14.840 ,1,0,0.,1.2,0.,1.2,0.,1.2,,0.0,,0.0
1979-03-08 22:24:16.040 ,1,0,0.,1.2,0.,1.2,0.,1.2,,0.0,,0.0
1979-03-08 22:24:17.240 ,1,0,0.,1.2,0.,1.2,0.,1.2,,0.0,,0.0
1979-03-08 22:24:18.440 ,1,0,0.,1.2,0.,1.2,0.,1.2,,0.0,,0.0
1979-03-08 22:24:19.640 ,1,0,0.,1.2,0.,1.2,0.,1.2,,0.0,,0.0
1979-03-08 22:24:20.840 ,2,0,0.,1.2,0.,1.2,0.,1.2,,0.0,,0.0
1979-03-08 22:24:22.040 ,2,0,0.,1.2,0.,1.2,0.,1.2,,0.0,,0.0
1979-03-08 22:24:23.240 ,2,0,0.,1.2,0.,1.2,0.,1.2,,0.0,,0.0
1979-03-08 22:24:24.440 ,2,0,0.,1.2,0.,1.2,0.,1.2,,0.0,,0.0
1979-03-08 22:24:25.640 ,2,0,0.,1.2,0.,1.2,0.,1.2,,0.0,,0.0
1979-03-08 22:24:26.840 ,2,0,0.,1.2,0.,1.2,0.,1.2,,0.0,,0.0
1979-03-08 22:24:28.040 ,2,0,0.,1.2,0.,1.2,0.,1.2,,0.0,,0.0
1979-03-08 22:24:29.240 ,2,0,0.,1.2,0.,1.2,0.,1.2,,0.0,,0.0
1979-03-08 22:24:30.440 ,2,0,0.,1.2,0.,1.2,0.,1.2,,0.0,,0.0
1979-03-08 22:24:31.640 ,2,0,0.,1.2,0.,1.2,0.,1.2,,0.0,,0.0
1979-03-08 22:24:32.840 ,2,0,0.,1.2,0.,1.2,0.,1.2,,0.0,,0.0
1979-03-08 22:24:34.040 ,2,0,0.,1.2,0.,1.2,0.,1.2,,0.0,,0.0
1979-03-08 22:24:35.240 ,2,0,0.,1.2,0.,1.2,0.,1.2,,0.0,,0.0
1979-03-08 22:24:36.440 ,2,0,0.,1.2,0.,1.2,0.,1.2,,0.0,,0.0
1979-03-08 22:24:37.640 ,2,0,0.,1.2,0.,1.2,0.,1.2,,0.0,,0.0
1979-03-08 22:24:38.840 ,2,0,0.,1.2,0.,1.2,0.,1.2,,0.0,,0.0
1979-03-08 22:24:40.040 ,2,0,0.,1.2,0.,1.2,0.,1.2,,0.0,,0.0
1979-03-08 22:24:41.240 ,2,0,0.,1.2,0.,1.2,0.,1.2,,0.0,,0.0
1979-03-08 22:24:42.440 ,2,0,0.,1.2,0.,1.2,0.,1.2,,0.0,,0.0
1979-03-08 22:24:43.640 ,2,0,0.,1.2,0.,1.2,0.,1.2,,0.0,,0.0
1979-03-08 22:24:44.840 ,3,0,0.,1.2,0.,1.2,0.,1.2,,0.0,,0.0
1979-03-08 22:24:46.040 ,3,0,0.,1.2,0.,1.2,0.,1.2,,0.0,,0.0
1979-03-08 22:24:47.240 ,3,0,0.,1.2,0.,1.2,0.,1.2,,0.0,,0.0
1979-03-08 22:24:48.440 ,3,0,0.,1.2,0.,1.2,0.,1.2,,0.0,,0.0
1979-03-08 22:24:49.640 ,3,0,0.,1.2,0.,1.2,0.,1.2,,0.0,,0.0
1979-03-08 22:24:50.840 ,3,0,0.,1.2,0.,1.2,0.,1.2,,0.0,,0.0
1979-03-08 22:24:52.040 ,3,0,0.,1.2,0.,1.2,0.,1.2,,0.0,,0.0
1979-03-08 22:24:53.240 ,3,0,0.,1.2,0.,1.2,0.,1.2,,0.0,,0.0
1979-03-08 22:24:54.440 ,3,0,0.,1.2,0.,1.2,0.,1.2,,0.0,,0.0
1979-03-08 22:24:55.640 ,3,0,0.,1.2,0.,1.2,0.,1.2,,0.0,,0.0
1979-03-08 22:24:56.840 ,3,0,0.,1.2,0.,1.2,0.,1.2,,0.0,,0.0
1979-03-08 22:24:58.040 ,3,0,0.,1.2,0.,1.2,0.,1.2,,0.0,,0.0
1979-03-08 22:24:59.240 ,3,0,0.,1.2,0.,1.2,0.,1.2,,0.0,,0.0
1979-03-08 22:25:00.440 ,3,0,0.,1.2,0.,1.2,0.,1.2,,0.0,,0.0
1979-03-08 22:25:01.640 ,3,0,0.,1.2,0.,1.2,0.,1.2,,0.0,,0.0
1979-03-08 22:25:02.840 ,3,0,0.,1.2,0.,1.2,0.,1.2,,0.0,,0.0
1979-03-08 22:25:04.040 ,3,0,0.,1.2,0.,1.2,0.,1.2,,0.0,,0.0
1979-03-08 22:25:05.240 ,3,0,0.,1.2,0.,1.2,0.,1.2,,0.0,,0.0
1979-03-08 22:25:06.440 ,3,0,0.,1.2,0.,1.2,0.,1.2,,0.0,,0.0
1979-03-08 22:25:07.640 ,3,0,0.,1.2,0.,1.2,0.,1.2,,0.0,,0.0
1979-03-08 22:25:08.840 ,4,0,0.,1.2,0.,1.2,0.,1.2,,0.0,,0.0
1979-03-08 22:25:10.040 ,4,0,0.,1.2,0.,1.2,0.,1.2,,0.0,,0.0
1979-03-08 22:25:11.240 ,4,0,0.,1.2,0.,1.2,0.,1.2,,0.0,,0.0
1979-03-08 22:25:12.440 ,4,0,0.,1.2,0.,1.2,0.,1.2,,0.0,,0.0
1979-03-08 22:25:13.640 ,4,0,0.,1.2,0.,1.2,0.,1.2,,0.0,,0.0
1979-03-08 22:25:14.840 ,4,0,0.,1.2,0.,1.2,0.,1.2,,0.0,,0.0
1979-03-08 22:25:16.040 ,4,0,0.,1.2,0.,1.2,0.,1.2,,0.0,,0.0
1979-03-08 22:25:17.240 ,4,0,0.,1.2,0.,1.2,0.,1.2,,0.0,,0.0
1979-03-08 22:25:18.440 ,4,0,0.,1.2,0.,1.2,0.,1.2,,0.0,,0.0
1979-03-08 22:25:19.640 ,4,0,0.,1.2,0.,1.2,0.,1.2,,0.0,,0.0
1979-03-08 22:25:20.840 ,4,0,0.,1.2,0.,1.2,0.,1.2,,0.0,,0.0
1979-03-08 22:25:22.040 ,4,0,0.,1.2,0.,1.2,0.,1.2,,0.0,,0.0
1979-03-08 22:25:23.240 ,4,0,0.,1.2,0.,1.2,0.,1.2,,0.0,,0.0
1979-03-08 22:25:24.440 ,4,0,0.,1.2,0.,1.2,0.,1.2,,0.0,,0.0
1979-03-08 22:25:25.640 ,4,0,0.,1.2,0.,1.2,0.,1.2,,0.0,,0.0
1979-03-08 22:25:26.840 ,4,0,0.,1.2,0.,1.2,0.,1.2,,0.0,,0.0
1979-03-08 22:25:28.040 ,4,0,0.,1.2,0.,1.2,0.,1.2,,0.0,,0.0
1979-03-08 22:25:29.240 ,4,0,0.,1.2,0.,1.2,0.,1.2,,0.0,,0.0
1979-03-08 22:25:30.440 ,4,0,0.,1.2,0.,1.2,0.,1.2,,0.0,,0.0
1979-03-08 22:25:31.640 ,4,0,0.,1.2,0.,1.2,0.,1.2,,0.0,,0.0
1979-03-08 22:25:32.840 ,5,0,0.,1.2,0.,1.2,0.,1.2,,0.0,,0.0
1979-03-08 22:25:34.040 ,5,0,0.,1.2,0.,1.2,0.,1.2,,0.0,,0.0
1979-03-08 22:25:35.240 ,5,0,0.,1.2,0.,1.2,0.,1.2,,0.0,,0.0
1979-03-08 22:25:36.440 ,5,0,0.,1.2,0.,1.2,0.,1.2,,0.0,,0.0
1979-03-08 22:25:37.640 ,5,0,0.,1.2,0.,1.2,0.,1.2,,0.0,,0.0
1979-03-08 22:25:38.840 ,5,0,0.,1.2,0.,1.2,0.,1.2,,0.0,,0.0
1979-03-08 22:25:40.040 ,5,0,0.,1.2,0.,1.2,0.,1.2,,0.0,,0.0
1979-03-08 22:25:41.240 ,5,0,0.,1.2,0.,1.2,0.,1.2,,0.0,,0.0
1979-03-08 22:25:42.440 ,5,0,0.,1.2,0.,1.2,0.,1.2,,0.0,,0.0
1979-03-08 22:25:43.640 ,5,0,0.,1.2,0.,1.2,0.,1.2,,0.0,,0.0
1979-03-08 22:25:44.840 ,5,0,0.,1.2,0.,1.2,0.,1.2,,0.0,,0.0
1979-03-08 22:25:46.040 ,5,0,0.,1.2,0.,1.2,0.,1.2,,0.0,,0.0
1979-03-08 22:25:47.240 ,5,0,0.,1.2,0.,1.2,0.,1.2,,0.0,,0.0
1979-03-08 22:25:48.440 ,5,0,0.,1.2,0.,1.2,0.,1.2,,0.0,,0.0
1979-03-08 22:25:49.640 ,5,0,0.,1.2,0.,1.2,0.,1.2,,0.0,,0.0
1979-03-08 22:25:50.840 ,5,0,0.,1.2,0.,1.2,0.,1.2,,0.0,,0.0
1979-03-08 22:25:52.040 ,5,0,0.,1.2,0.,1.2,0.,1.2,,0.0,,0.0
1979-03-08 22:25:53.240 ,5,0,0.,1.2,0.,1.2,0.,1.2,,0.0,,0.0
1979-03-08 22:25:54.440 ,5,0,0.,1.2,0.,1.2,0.,1.2,,0.0,,0.0
1979-03-08 22:25:55.640 ,5,0,0.,1.2,0.,1.2,0.,1.2,,0.0,,0.0
1979-03-08 22:25:56.840 ,6,0,0.,1.2,0.,1.2,0.,1.2,,0.0,,0.0
1979-03-08 22:25:58.040 ,6,0,0.,1.2,0.,1.2,0.,1.2,,0.0,,0.0
1979-03-08 22:25:59.240 ,6,0,0.,1.2,0.,1.2,0.,1.2,,0.0,,0.0
1979-03-08 22:26:00.440 ,6,0,0.,1.2,0.,1.2,0.,1.2,,0.0,,0.0
1979-03-08 22:26:01.640 ,6,0,0.,1.2,0.,1.2,0.,1.2,,0.0,,0.0
1979-03-08 22:26:02.840 ,6,0,0.,1.2,0.,1.2,0.,1.2,,0.0,,0.0
1979-03-08 22:26:04.040 ,6,0,0.,1.2,0.,1.2,0.,1.2,,0.0,,0.0
1979-03-08 22:26:05.240 ,6,0,0.,1.2,0.,1.2,0.,1.2,,0.0,,0.0
1979-03-08 22:26:06.440 ,6,0,0.,1.2,0.,1.2,0.,1.2,,0.0,,0.0
1979-03-08 22:26:07.640 ,6,0,0.,1.2,0.,1.2,0.,1.2,,0.0,,0.0
1979-03-08 22:26:08.840 ,6,0,0.,1.2,0.,1.2,0.,1.2,,0.0,,0.0
1979-03-08 22:26:10.040 ,6,0,0.,1.2,0.,1.2,0.,1.2,,0.0,,0.0
1979-03-08 22:26:11.240 ,6,0,0.,1.2,0.,1.2,0.,1.2,,0.0,,0.0
1979-03-08 22:26:12.440 ,6,0,0.,1.2,0.,1.2,0.,1.2,,0.0,,0.0
1979-03-08 22:26:13.640 ,6,0,0.,1.2,0.,1.2,0.,1.2,,0.0,,0.0
1979-03-08 22:26:14.840 ,6,0,0.,1.2,0.,1.2,0.,1.2,,0.0,,0.0
1979-03-08 22:26:16.040 ,6,0,0.,1.2,0.,1.2,0.,1.2,,0.0,,0.0
1979-03-08 22:26:17.240 ,6,0,0.,1.2,0.,1.2,0.,1.2,,0.0,,0.0
1979-03-08 22:26:18.440 ,6,0,0.,1.2,0.,1.2,0.,1.2,,0.0,,0.0
1979-03-08 22:26:19.640 ,6,0,0.,1.2,0.,1.2,0.,1.2,,0.0,,0.0
1979-03-08 22:26:20.840 ,7,0,0.,1.2,0.,1.2,0.,1.2,,0.0,,0.0
1979-03-08 22:26:22.040 ,7,0,0.,1.2,0.,1.2,0.,1.2,,0.0,,0.0
1979-03-08 22:26:23.240 ,7,0,0.,1.2,0.,1.2,0.,1.2,,0.0,,0.0
1979-03-08 22:26:24.440 ,7,0,0.,1.2,0.,1.2,0.,1.2,,0.0,,0.0
1979-03-08 22:26:25.640 ,7,0,0.,1.2,0.,1.2,0.,1.2,,0.0,,0.0
1979-03-08 22:26:26.840 ,7,0,0.,1.2,0.,1.2,0.,1.2,,0.0,,0.0
1979-03-08 22:26:28.040 ,7,0,0.,1.2,0.,1.2,0.,1.2,,0.0,,0.0
1979-03-08 22:26:29.240 ,7,0,0.,1.2,0.,1.2,0.,1.2,,0.0,,0.0
1979-03-08 22:26:30.440 ,7,0,0.,1.2,0.,1.2,0.,1.2,,0.0,,0.0
1979-03-08 22:26:31.640 ,7,0,0.,1.2,0.,1.2,0.,1.2,,0.0,,0.0
1979-03-08 22:26:32.840 ,7,0,0.,1.2,0.,1.2,0.,1.2,,0.0,,0.0
1979-03-08 22:26:34.040 ,7,0,0.,1.2,0.,1.2,0.,1.2,,0.0,,0.0
1979-03-08 22:26:35.240 ,7,0,0.,1.2,0.,1.2,0.,1.2,,0.0,,0.0
1979-03-08 22:26:36.440 ,7,0,0.,1.2,0.,1.2,0.,1.2,,0.0,,0.0
1979-03-08 22:26:37.640 ,7,0,0.,1.2,0.,1.2,0.,1.2,,0.0,,0.0
1979-03-08 22:26:38.840 ,7,0,0.,1.2,0.,1.2,0.,1.2,,0.0,,0.0
1979-03-08 22:26:40.040 ,7,0,0.,1.2,0.,1.2,0.,1.2,,0.0,,0.0
1979-03-08 22:26:41.240 ,7,0,0.,1.2,0.,1.2,0.,1.2,,0.0,,0.0
1979-03-08 22:26:42.440 ,7,0,0.,1.2,0.,1.2,0.,1.2,,0.0,,0.0
1979-03-08 22:26:43.640 ,7,0,0.,1.2,0.,1.2,0.,1.2,,0.0,,0.0
1979-03-08 22:26:44.840 ,7,0,0.,1.2,0.,1.2,0.,1.2,,0.0,,0.0
1979-03-08 22:26:46.040 ,7,0,0.,1.2,0.,1.2,0.,1.2,,0.0,,0.0
1979-03-08 22:26:47.240 ,7,0,0.,1.2,0.,1.2,0.,1.2,,0.0,,0.0
1979-03-08 22:26:48.440 ,7,0,0.,1.2,0.,1.2,0.,1.2,,0.0,,0.0
1979-03-08 22:26:49.640 ,7,0,0.,1.2,0.,1.2,0.,1.2,,0.0,,0.0
1979-03-08 22:26:50.840 ,7,0,0.,1.2,0.,1.2,0.,1.2,,0.0,,0.0
1979-03-08 22:26:52.040 ,7,0,,0,,0,,0,,0,,0
1979-03-08 22:26:53.240 ,7,0,0.,1.2,0.,1.2,0.,1.2,,0.0,,0.0
1979-03-08 22:26:54.440 ,7,0,0.,1.2,0.,1.2,0.,1.2,,0.0,,0.0
1979-03-08 22:26:55.640 ,7,0,0.,1.2,0.,1.2,0.,1.2,,0.0,,0.0
1979-03-08 22:26:56.840 ,7,0,0.,1.2,0.,1.2,0.,1.2,,0.0,,0.0
1979-03-08 22:26:58.040 ,7,0,0.,1.2,0.,1.2,0.,1.2,,0.0,,0.0
1979-03-08 22:26:59.240 ,7,0,0.,1.2,0.,1.2,0.,1.2,,0.0,,0.0
1979-03-08 22:27:00.440 ,7,0,0.,1.2,0.,1.2,0.,1.2,,0.0,,0.0
1979-03-08 22:27:01.640 ,7,0,0.,1.2,0.,1.2,0.,1.2,,0.0,,0.0
1979-03-08 22:27:02.840 ,7,0,0.,1.2,0.,1.2,0.,1.2,,0.0,,0.0
1979-03-08 22:27:04.040 ,7,0,0.,1.2,0.,1.2,0.,1.2,,0.0,,0.0
1979-03-08 22:27:05.240 ,7,0,0.,1.2,0.,1.2,0.,1.2,,0.0,,0.0
1979-03-08 22:27:06.440 ,7,0,0.,1.2,0.,1.2,0.,1.2,,0.0,,0.0
1979-03-08 22:27:07.640 ,7,0,0.,1.2,0.,1.2,0.,1.2,,0.0,,0.0
1979-03-08 22:27:08.840 ,6,0,0.,1.2,0.,1.2,0.,1.2,,0.0,,0.0
1979-03-08 22:27:10.040 ,6,0,0.,1.2,0.,1.2,0.,1.2,,0.0,,0.0
1979-03-08 22:27:11.240 ,6,0,0.,1.2,0.,1.2,0.,1.2,,0.0,,0.0
1979-03-08 22:27:12.440 ,6,0,0.,1.2,0.,1.2,0.,1.2,,0.0,,0.0
1979-03-08 22:27:13.640 ,6,0,0.,1.2,0.,1.2,0.,1.2,,0.0,,0.0
1979-03-08 22:27:14.840 ,6,0,0.,1.2,0.,1.2,0.,1.2,,0.0,,0.0
1979-03-08 22:27:16.040 ,6,0,0.,1.2,0.,1.2,0.,1.2,,0.0,,0.0
1979-03-08 22:27:17.240 ,6,0,0.,1.2,0.,1.2,0.,1.2,,0.0,,0.0
1979-03-08 22:27:18.440 ,6,0,0.,1.2,0.,1.2,0.,1.2,,0.0,,0.0
1979-03-08 22:27:19.640 ,6,0,0.,1.2,0.,1.2,0.,1.2,,0.0,,0.0
1979-03-08 22:27:20.840 ,6,0,0.,1.2,0.,1.2,0.,1.2,,0.0,,0.0
1979-03-08 22:27:22.040 ,6,0,0.,1.2,0.,1.2,0.,1.2,,0.0,,0.0
1979-03-08 22:27:23.240 ,6,0,0.,1.2,0.,1.2,0.,1.2,,0.0,,0.0
1979-03-08 22:27:24.440 ,6,0,0.,1.2,0.,1.2,0.,1.2,,0.0,,0.0
1979-03-08 22:27:25.640 ,6,0,0.,1.2,0.,1.2,0.,1.2,,0.0,,0.0
1979-03-08 22:27:26.840 ,6,0,0.,1.2,0.,1.2,0.,1.2,,0.0,,0.0
1979-03-08 22:27:28.040 ,6,0,0.,1.2,0.,1.2,0.,1.2,,0.0,,0.0
1979-03-08 22:27:29.240 ,6,0,0.,1.2,0.,1.2,0.,1.2,,0.0,,0.0
1979-03-08 22:27:30.440 ,6,0,0.,1.2,0.,1.2,0.,1.2,,0.0,,0.0
1979-03-08 22:27:31.640 ,6,0,0.,1.2,0.,1.2,0.,1.2,,0.0,,0.0
1979-03-08 22:27:32.840 ,5,0,0.,1.2,0.,1.2,0.,1.2,,0.0,,0.0
1979-03-08 22:27:34.040 ,5,0,0.,1.2,0.,1.2,0.,1.2,,0.0,,0.0
1979-03-08 22:27:35.240 ,5,0,0.,1.2,0.,1.2,0.,1.2,,0.0,,0.0
1979-03-08 22:27:36.440 ,5,0,0.,1.2,0.,1.2,0.,1.2,,0.0,,0.0
1979-03-08 22:27:37.640 ,5,0,0.,1.2,0.,1.2,0.,1.2,,0.0,,0.0
1979-03-08 22:27:38.840 ,5,0,0.,1.2,0.,1.2,0.,1.2,,0.0,,0.0
1979-03-08 22:27:40.040 ,5,0,0.,1.2,0.,1.2,0.,1.2,,0.0,,0.0
1979-03-08 22:27:41.240 ,5,0,0.,1.2,0.,1.2,0.,1.2,,0.0,,0.0
1979-03-08 22:27:42.440 ,5,0,0.,1.2,0.,1.2,0.,1.2,,0.0,,0.0
1979-03-08 22:27:43.640 ,5,0,0.,1.2,0.,1.2,0.,1.2,,0.0,,0.0
1979-03-08 22:27:44.840 ,5,0,0.,1.2,0.,1.2,0.,1.2,,0.0,,0.0
1979-03-08 22:27:46.040 ,5,0,0.,1.2,0.,1.2,0.,1.2,,0.0,,0.0
1979-03-08 22:27:47.240 ,5,0,0.,1.2,0.,1.2,0.,1.2,,0.0,,0.0
1979-03-08 22:27:48.440 ,5,0,0.,1.2,0.,1.2,0.,1.2,,0.0,,0.0
1979-03-08 22:27:49.640 ,5,0,0.,1.2,0.,1.2,0.,1.2,,0.0,,0.0
1979-03-08 22:27:50.840 ,5,0,0.,1.2,0.,1.2,0.,1.2,,0.0,,0.0
1979-03-08 22:27:52.040 ,5,0,0.,1.2,0.,1.2,0.,1.2,,0.0,,0.0
1979-03-08 22:27:53.240 ,5,0,0.,1.2,0.,1.2,0.,1.2,,0.0,,0.0
1979-03-08 22:27:54.440 ,5,0,0.,1.2,0.,1.2,0.,1.2,,0.0,,0.0
1979-03-08 22:27:55.640 ,5,0,0.,1.2,0.,1.2,0.,1.2,,0.0,,0.0
1979-03-08 22:27:56.840 ,4,0,0.,1.2,0.,1.2,0.,1.2,,0.0,,0.0
1979-03-08 22:27:58.040 ,4,0,0.,1.2,0.,1.2,0.,1.2,,0.0,,0.0
1979-03-08 22:27:59.240 ,4,0,0.,1.2,0.,1.2,0.,1.2,,0.0,,0.0
1979-03-08 22:28:00.440 ,4,0,0.,1.2,0.,1.2,0.,1.2,,0.0,,0.0
1979-03-08 22:28:01.640 ,4,0,0.,1.2,0.,1.2,0.,1.2,,0.0,,0.0
1979-03-08 22:28:02.840 ,4,0,0.,1.2,0.,1.2,0.,1.2,,0.0,,0.0
1979-03-08 22:28:04.040 ,4,0,0.,1.2,0.,1.2,0.,1.2,,0.0,,0.0
1979-03-08 22:28:05.240 ,4,0,0.,1.2,0.,1.2,0.,1.2,,0.0,,0.0
1979-03-08 22:28:06.440 ,4,0,0.,1.2,0.,1.2,0.,1.2,,0.0,,0.0
1979-03-08 22:28:07.640 ,4,0,0.,1.2,0.,1.2,0.,1.2,,0.0,,0.0
1979-03-08 22:28:08.840 ,4,0,0.,1.2,0.,1.2,0.,1.2,,0.0,,0.0
1979-03-08 22:28:10.040 ,4,0,0.,1.2,0.,1.2,0.,1.2,,0.0,,0.0
1979-03-08 22:28:11.240 ,4,0,0.,1.2,0.,1.2,0.,1.2,,0.0,,0.0
1979-03-08 22:28:12.440 ,4,0,0.,1.2,0.,1.2,0.,1.2,,0.0,,0.0
1979-03-08 22:28:13.640 ,4,0,0.,1.2,0.,1.2,0.,1.2,,0.0,,0.0
1979-03-08 22:28:14.840 ,4,0,0.,1.2,0.,1.2,0.,1.2,,0.0,,0.0
1979-03-08 22:28:16.040 ,4,0,0.,1.2,0.,1.2,0.,1.2,,0.0,,0.0
1979-03-08 22:28:17.240 ,4,0,0.,1.2,0.,1.2,0.,1.2,,0.0,,0.0
1979-03-08 22:28:18.440 ,4,0,0.,1.2,0.,1.2,0.,1.2,,0.0,,0.0
1979-03-08 22:28:19.640 ,4,0,0.,1.2,0.,1.2,0.,1.2,,0.0,,0.0
1979-03-08 22:28:20.840 ,3,0,0.,1.2,0.,1.2,0.,1.2,,0.0,,0.0
1979-03-08 22:28:22.040 ,3,0,0.,1.2,0.,1.2,0.,1.2,,0.0,,0.0
1979-03-08 22:28:23.240 ,3,0,0.,1.2,0.,1.2,0.,1.2,,0.0,,0.0
1979-03-08 22:28:24.440 ,3,0,0.,1.2,0.,1.2,0.,1.2,,0.0,,0.0
1979-03-08 22:28:25.640 ,3,0,0.,1.2,0.,1.2,0.,1.2,,0.0,,0.0
1979-03-08 22:28:26.840 ,3,0,0.,1.2,0.,1.2,0.,1.2,,0.0,,0.0
1979-03-08 22:28:28.040 ,3,0,0.,1.2,0.,1.2,0.,1.2,,0.0,,0.0
1979-03-08 22:28:29.240 ,3,0,0.,1.2,0.,1.2,0.,1.2,,0.0,,0.0
1979-03-08 22:28:30.440 ,3,0,0.,1.2,0.,1.2,0.,1.2,,0.0,,0.0
1979-03-08 22:28:31.640 ,3,0,0.,1.2,0.,1.2,0.,1.2,,0.0,,0.0
1979-03-08 22:28:32.840 ,3,0,0.,1.2,0.,1.2,0.,1.2,,0.0,,0.0
1979-03-08 22:28:34.040 ,3,0,0.,1.2,0.,1.2,0.,1.2,,0.0,,0.0
1979-03-08 22:28:35.240 ,3,0,0.,1.2,0.,1.2,0.,1.2,,0.0,,0.0
1979-03-08 22:28:36.440 ,3,0,0.,1.2,0.,1.2,0.,1.2,,0.0,,0.0
1979-03-08 22:28:37.640 ,3,0,0.,1.2,0.,1.2,0.,1.2,,0.0,,0.0
1979-03-08 22:28:38.840 ,3,0,0.,1.2,0.,1.2,0.,1.2,,0.0,,0.0
1979-03-08 22:28:40.040 ,3,0,0.,1.2,0.,1.2,0.,1.2,,0.0,,0.0
1979-03-08 22:28:41.240 ,3,0,0.,1.2,0.,1.2,0.,1.2,,0.0,,0.0
1979-03-08 22:28:42.440 ,3,0,0.,1.2,0.,1.2,0.,1.2,,0.0,,0.0
1979-03-08 22:28:43.640 ,3,0,0.,1.2,0.,1.2,0.,1.2,,0.0,,0.0
1979-03-08 22:28:44.840 ,2,0,0.,1.2,0.,1.2,0.,1.2,,0.0,,0.0
1979-03-08 22:28:46.040 ,2,0,0.,1.2,0.,1.2,0.,1.2,,0.0,,0.0
1979-03-08 22:28:47.240 ,2,0,0.,1.2,0.,1.2,0.,1.2,,0.0,,0.0
1979-03-08 22:28:48.440 ,2,0,0.,1.2,0.,1.2,0.,1.2,,0.0,,0.0
1979-03-08 22:28:49.640 ,2,0,0.,1.2,0.,1.2,0.,1.2,,0.0,,0.0
1979-03-08 22:28:50.840 ,2,0,0.,1.2,0.,1.2,0.,1.2,,0.0,,0.0
1979-03-08 22:28:52.040 ,2,0,0.,1.2,0.,1.2,0.,1.2,,0.0,,0.0
1979-03-08 22:28:53.240 ,2,0,0.,1.2,0.,1.2,0.,1.2,,0.0,,0.0
1979-03-08 22:28:54.440 ,2,0,0.,1.2,0.,1.2,0.,1.2,,0.0,,0.0
1979-03-08 22:28:55.640 ,2,0,0.,1.2,0.,1.2,0.,1.2,,0.0,,0.0
1979-03-08 22:28:56.840 ,2,0,0.,1.2,0.,1.2,0.,1.2,,0.0,,0.0
1979-03-08 22:28:58.040 ,2,0,0.,1.2,0.,1.2,0.,1.2,,0.0,,0.0
1979-03-08 22:28:59.240 ,2,0,0.,1.2,0.,1.2,0.,1.2,,0.0,,0.0
1979-03-08 22:29:00.440 ,2,0,0.,1.2,0.,1.2,0.,1.2,,0.0,,0.0
1979-03-08 22:29:01.640 ,2,0,0.,1.2,0.,1.2,0.,1.2,,0.0,,0.0
1979-03-08 22:29:02.840 ,2,0,0.,1.2,0.,1.2,0.,1.2,,0.0,,0.0
1979-03-08 22:29:04.040 ,2,0,0.,1.2,0.,1.2,0.,1.2,,0.0,,0.0
1979-03-08 22:29:05.240 ,2,0,0.,1.2,0.,1.2,0.,1.2,,0.0,,0.0
1979-03-08 22:29:06.440 ,2,0,0.,1.2,0.,1.2,0.,1.2,,0.0,,0.0
1979-03-08 22:29:07.640 ,2,0,0.,1.2,0.,1.2,0.,1.2,,0.0,,0.0
1979-03-08 22:29:08.840 ,1,0,0.,1.2,0.,1.2,0.,1.2,,0.0,,0.0
1979-03-08 22:29:10.040 ,1,0,0.,1.2,0.,1.2,0.,1.2,,0.0,,0.0
1979-03-08 22:29:11.240 ,1,0,0.,1.2,0.,1.2,0.,1.2,,0.0,,0.0
1979-03-08 22:29:12.440 ,1,0,0.,1.2,0.,1.2,0.,1.2,,0.0,,0.0
1979-03-08 22:29:13.640 ,1,0,0.,1.2,0.,1.2,0.,1.2,,0.0,,0.0
1979-03-08 22:29:14.840 ,1,0,0.,1.2,0.,1.2,0.,1.2,,0.0,,0.0
1979-03-08 22:29:16.040 ,1,0,0.,1.2,0.,1.2,0.,1.2,,0.0,,0.0
1979-03-08 22:29:17.240 ,1,0,0.,1.2,0.,1.2,0.,1.2,,0.0,,0.0
1979-03-08 22:29:18.440 ,1,0,0.,1.2,0.,1.2,0.,1.2,,0.0,,0.0
1979-03-08 22:29:19.640 ,1,0,0.,1.2,0.,1.2,0.,1.2,,0.0,,0.0
1979-03-08 22:29:20.840 ,1,0,0.,1.2,0.,1.2,0.,1.2,,0.0,,0.0
1979-03-08 22:29:22.040 ,1,0,0.,1.2,0.,1.2,0.,1.2,,0.0,,0.0
1979-03-08 22:29:23.240 ,1,0,0.,1.2,0.,1.2,0.,1.2,,0.0,,0.0
1979-03-08 22:29:24.440 ,1,0,0.,1.2,0.,1.2,0.,1.2,,0.0,,0.0
1979-03-08 22:29:25.640 ,1,0,0.,1.2,0.,1.2,0.,1.2,,0.0,,0.0
1979-03-08 22:29:26.840 ,1,0,0.,1.2,0.,1.2,0.,1.2,,0.0,,0.0
1979-03-08 22:29:28.040 ,1,0,0.,1.2,0.,1.2,0.,1.2,,0.0,,0.0
1979-03-08 22:29:29.240 ,1,0,0.,1.2,0.,1.2,0.,1.2,,0.0,,0.0
1979-03-08 22:29:30.440 ,1,0,0.,1.2,0.,1.2,0.,1.2,,0.0,,0.0
1979-03-08 22:29:31.640 ,1,0,0.,1.2,0.,1.2,0.,1.2,,0.0,,0.0
1979-03-08 22:29:32.840 ,0,0,0.,1.2,0.,1.2,0.,1.2,,0.0,,0.0
1979-03-08 22:29:34.040 ,0,0,0.,1.2,0.,1.2,0.,1.2,,0.0,,0.0
1979-03-08 22:29:35.240 ,0,0,0.,1.2,0.,1.2,0.,1.2,,0.0,,0.0
1979-03-08 22:29:36.440 ,0,0,0.,1.2,0.,1.2,0.,1.2,,0.0,,0.0
1979-03-08 22:29:37.640 ,0,0,0.,1.2,0.,1.2,0.,1.2,,0.0,,0.0
1979-03-08 22:29:38.840 ,0,0,0.,1.2,0.,1.2,0.,1.2,,0.0,,0.0
1979-03-08 22:29:40.040 ,0,0,0.,1.2,0.,1.2,0.,1.2,,0.0,,0.0
1979-03-08 22:29:41.240 ,0,0,0.,1.2,0.,1.2,0.,1.2,,0.0,,0.0
1979-03-08 22:29:42.440 ,0,0,0.,1.2,0.,1.2,0.,1.2,,0.0,,0.0
1979-03-08 22:29:43.640 ,0,0,0.,1.2,0.,1.2,0.,1.2,,0.0,,0.0
1979-03-08 22:29:44.840 ,0,0,0.,1.2,0.,1.2,0.,1.2,,0.0,,0.0
1979-03-08 22:29:46.040 ,0,0,0.,1.2,0.,1.2,0.,1.2,,0.0,,0.0
1979-03-08 22:29:47.240 ,0,0,0.,1.2,0.,1.2,0.,1.2,,0.0,,0.0
1979-03-08 22:29:48.440 ,0,0,0.,1.2,0.,1.2,0.,1.2,,0.0,,0.0
1979-03-08 22:29:49.640 ,0,0,0.,1.2,0.,1.2,0.,1.2,,0.0,,0.0
1979-03-08 22:29:50.840 ,0,0,0.,1.2,0.,1.2,0.,1.2,,0.0,,0.0
1979-03-08 22:29:52.040 ,0,0,0.,1.2,0.,1.2,0.,1.2,,0.0,,0.0
1979-03-08 22:29:53.240 ,0,0,0.,1.2,0.,1.2,0.,1.2,,0.0,,0.0
1979-03-08 22:29:54.440 ,0,0,0.,1.2,0.,1.2,0.,1.2,,0.0,,0.0
1979-03-08 22:29:55.640 ,0,0,0.,1.2,0.,1.2,0.,1.2,,0.0,,0.0
1979-03-08 22:29:56.840 ,0,0,0.,1.2,0.,1.2,0.,1.2,,0.0,,0.0
1979-03-08 22:29:58.040 ,0,0,0.,1.2,0.,1.2,0.,1.2,,0.0,,0.0
1979-03-08 22:29:59.240 ,0,0,0.,1.2,0.,1.2,0.,1.2,,0.0,,0.0
1979-03-08 22:30:00.440 ,0,0,0.,1.2,0.,1.2,0.,1.2,,0.0,,0.0
1979-03-08 22:30:01.640 ,0,0,0.,1.2,0.,1.2,0.,1.2,,0.0,,0.0
1979-03-08 22:30:02.840 ,0,0,0.,1.2,0.,1.2,0.,1.2,,0.0,,0.0
1979-03-08 22:30:04.040 ,0,0,0.,1.2,0.,1.2,0.,1.2,,0.0,,0.0
1979-03-08 22:30:05.240 ,0,0,0.,1.2,0.,1.2,0.,1.2,,0.0,,0.0
1979-03-08 22:30:06.440 ,0,0,0.,1.2,0.,1.2,0.,1.2,,0.0,,0.0
1979-03-08 22:30:07.640 ,0,0,0.,1.2,0.,1.2,0.,1.2,,0.0,,0.0
1979-03-08 22:30:08.840 ,0,0,0.,1.2,0.,1.2,0.,1.2,,0.0,,0.0
1979-03-08 22:30:10.040 ,0,0,0.,1.2,0.,1.2,0.,1.2,,0.0,,0.0
1979-03-08 22:30:11.240 ,0,0,0.,1.2,0.,1.2,0.,1.2,,0.0,,0.0
1979-03-08 22:30:12.440 ,0,0,0.,1.2,0.,1.2,0.,1.2,,0.0,,0.0
1979-03-08 22:30:13.640 ,0,0,0.,1.2,0.,1.2,0.,1.2,,0.0,,0.0
1979-03-08 22:30:14.840 ,0,0,0.,1.2,0.,1.2,0.,1.2,,0.0,,0.0
1979-03-08 22:30:16.040 ,0,0,0.,1.2,0.,1.2,0.,1.2,,0.0,,0.0
1979-03-08 22:30:17.240 ,0,0,0.,1.2,0.,1.2,0.,1.2,,0.0,,0.0
1979-03-08 22:30:18.440 ,0,0,0.,1.2,0.,1.2,0.,1.2,,0.0,,0.0
1979-03-08 22:30:19.640 ,0,0,0.,1.2,0.,1.2,0.,1.2,,0.0,,0.0
1979-03-08 22:30:20.840 ,1,0,0.,1.2,0.,1.2,0.,1.2,,0.0,,0.0
1979-03-08 22:30:22.040 ,1,0,0.,1.2,0.,1.2,0.,1.2,,0.0,,0.0
1979-03-08 22:30:23.240 ,1,0,0.,1.2,0.,1.2,0.,1.2,,0.0,,0.0
1979-03-08 22:30:24.440 ,1,0,0.,1.2,0.,1.2,0.,1.2,,0.0,,0.0
1979-03-08 22:30:25.640 ,1,0,0.,1.2,0.,1.2,0.,1.2,,0.0,,0.0
1979-03-08 22:30:26.840 ,1,0,0.,1.2,0.,1.2,0.,1.2,,0.0,,0.0
1979-03-08 22:30:28.040 ,1,0,0.,1.2,0.,1.2,0.,1.2,,0.0,,0.0
1979-03-08 22:30:29.240 ,1,0,0.,1.2,0.,1.2,0.,1.2,,0.0,,0.0
1979-03-08 22:30:30.440 ,1,0,0.,1.2,0.,1.2,0.,1.2,,0.0,,0.0
1979-03-08 22:30:31.640 ,1,0,0.,1.2,0.,1.2,0.,1.2,,0.0,,0.0
1979-03-08 22:30:32.840 ,1,0,0.,1.2,0.,1.2,0.,1.2,,0.0,,0.0
1979-03-08 22:30:34.040 ,1,0,0.,1.2,0.,1.2,0.,1.2,,0.0,,0.0
1979-03-08 22:30:35.240 ,1,0,0.,1.2,0.,1.2,0.,1.2,,0.0,,0.0
1979-03-08 22:30:36.440 ,1,0,0.,1.2,0.,1.2,0.,1.2,,0.0,,0.0
1979-03-08 22:30:37.640 ,1,0,0.,1.2,0.,1.2,0.,1.2,,0.0,,0.0
1979-03-08 22:30:38.840 ,1,0,0.,1.2,0.,1.2,0.,1.2,,0.0,,0.0
1979-03-08 22:30:40.040 ,1,0,0.,1.2,0.,1.2,0.,1.2,,0.0,,0.0
1979-03-08 22:30:41.240 ,1,0,0.,1.2,0.,1.2,0.,1.2,,0.0,,0.0
1979-03-08 22:30:42.440 ,1,0,0.,1.2,0.,1.2,0.,1.2,,0.0,,0.0
1979-03-08 22:30:43.640 ,1,0,0.,1.2,0.,1.2,0.,1.2,,0.0,,0.0
1979-03-08 22:30:44.840 ,2,0,0.,1.2,0.,1.2,0.,1.2,,0.0,,0.0
1979-03-08 22:30:46.040 ,2,0,0.,1.2,0.,1.2,0.,1.2,,0.0,,0.0
1979-03-08 22:30:47.240 ,2,0,0.,1.2,0.,1.2,0.,1.2,,0.0,,0.0
1979-03-08 22:30:48.440 ,2,0,0.,1.2,0.,1.2,0.,1.2,,0.0,,0.0
1979-03-08 22:30:49.640 ,2,0,0.,1.2,0.,1.2,0.,1.2,,0.0,,0.0
1979-03-08 22:30:50.840 ,2,0,0.,1.2,0.,1.2,0.,1.2,,0.0,,0.0
1979-03-08 22:30:52.040 ,2,0,0.,1.2,0.,1.2,0.,1.2,,0.0,,0.0
1979-03-08 22:30:53.240 ,2,0,0.,1.2,0.,1.2,0.,1.2,,0.0,,0.0
1979-03-08 22:30:54.440 ,2,0,0.,1.2,0.,1.2,0.,1.2,,0.0,,0.0
1979-03-08 22:30:55.640 ,2,0,0.,1.2,0.,1.2,0.,1.2,,0.0,,0.0
1979-03-08 22:30:56.840 ,2,0,0.,1.2,0.,1.2,0.,1.2,,0.0,,0.0
1979-03-08 22:30:58.040 ,2,0,0.,1.2,0.,1.2,0.,1.2,,0.0,,0.0